Date,TemperatureHighF,TemperatureAvgF,TemperatureLowF,DewpointHighF,DewpointAvgF,DewpointLowF,HumidityHigh,HumidityAvg,HumidityLow,PressureMaxIn,PressureMinIn,WindSpeedMaxMPH,WindSpeedAvgMPH,GustSpeedMaxMPH,PrecipitationSumIn
2013-8-1,81.0,69.3,63.3,69.3,66.1,62.8,98,90,65,29.99,29.89,13,0,13,1.49
2013-8-2,78.6,68.8,59.7,69.4,64.8,59.2,99,88,68,30.04,29.93,8,0,8,0.01
2013-8-3,81.0,70.7,63.3,69.1,64.9,61.0,98,83,54,30.04,29.96,6,0,6,0.00
2013-8-4,79.5,70.5,63.9,68.0,63.7,57.7,97,80,61,30.04,29.95,16,2,17,0.00
2013-8-5,77.4,68.3,59.4,68.2,63.5,57.9,97,85,68,30.06,29.97,10,0,11,0.00
2013-8-6,78.3,70.0,66.7,70.2,67.0,64.6,98,91,67,30.03,29.94,9,0,10,0.54
2013-8-7,70.7,67.4,64.9,69.3,66.6,64.2,98,97,92,30.06,29.99,6,0,8,2.62
2013-8-8,75.9,69.7,64.8,70.7,67.5,64.2,98,93,81,30.07,30.01,7,0,8,0.00
2013-8-9,80.1,71.7,67.5,72.1,68.8,66.6,98,91,73,30.09,30.01,4,0,4,0.25
2013-8-10,81.7,71.5,65.1,72.5,68.6,64.2,98,91,68,30.12,30.04,11,0,12,3.24
2013-8-11,81.9,70.9,64.2,72.3,67.5,63.7,99,90,65,30.14,30.06,5,0,6,0.03
2013-8-12,82.8,71.5,62.4,72.9,67.4,61.9,98,88,63,30.11,29.96,2,0,2,0.02
2013-8-13,79.0,70.7,64.9,69.6,66.0,62.4,97,86,65,29.98,29.83,9,0,9,0.05
2013-8-14,72.1,65.5,60.6,63.9,60.5,56.5,95,84,70,30.06,29.88,11,1,11,0.02
2013-8-15,61.9,58.8,55.6,59.5,56.0,53.6,97,91,81,30.16,30.05,14,1,14,0.02
2013-8-16,65.7,58.8,54.1,58.1,55.2,52.7,96,88,74,30.18,30.10,12,2,14,0.00
2013-8-17,63.0,59.0,56.1,59.2,56.7,52.7,98,92,82,30.20,30.14,13,2,13,0.07
2013-8-18,73.6,63.8,59.2,66.7,61.9,58.6,98,94,76,30.24,30.14,5,0,5,0.27
2013-8-19,69.6,64.6,61.3,66.9,63.2,60.6,98,95,87,30.21,30.09,8,0,8,1.39
2013-8-20,73.9,66.2,59.5,68.4,64.1,59.0,98,93,81,30.21,30.11,7,0,7,0.00
2013-8-21,71.4,66.1,63.3,68.0,64.8,62.6,98,96,82,30.24,30.14,5,0,6,0.50
2013-8-22,80.2,68.9,61.9,70.5,65.6,61.3,99,90,62,30.18,30.04,10,0,10,0.45
2013-8-23,79.9,67.2,58.8,72.3,63.7,58.3,98,90,58,30.09,29.98,12,0,13,1.44
2013-8-24,72.5,65.0,56.3,63.0,60.3,54.7,98,86,59,30.31,30.08,15,2,15,0.01
2013-8-25,71.1,61.1,51.4,61.7,56.3,50.7,98,85,62,30.40,30.30,9,0,9,0.00
2013-8-26,74.1,63.3,53.1,65.7,58.3,52.5,98,85,57,30.36,30.16,16,1,17,0.00
2013-8-27,77.7,66.8,56.5,68.2,62.0,55.9,98,86,58,30.19,30.04,16,1,16,0.01
2013-8-28,79.7,69.6,61.2,70.2,65.2,60.3,98,87,67,30.08,29.96,11,1,11,0.00
2013-8-29,82.8,71.7,63.0,71.8,66.6,62.1,98,85,58,29.98,29.91,13,1,13,0.00
2013-8-30,75.0,69.3,66.4,70.2,67.3,65.5,98,94,82,30.03,29.93,8,0,9,0.23
2013-8-31,81.3,71.2,64.6,70.7,67.5,63.7,98,89,68,29.97,29.88,6,0,6,0.01